Showing default

LEMUR 2 NIMBUS2000, 58899

Orbit data source: Space-Track

LEMUR 2 NIMBUS2000, 58899 is an American payload satellite in SSO that was launched on Wed, 31 Jan 2024 UTC via an ELECTRON launch vehicle from the Rocket Lab Launch Complex (RLLC). Payload-class satellites include a variety of spacecraft equipped with specific instruments for various scientific and technological missions. These include communications satellites like Starlink; space stations such as the ISS; scientific satellites like the Hubble; Earth observation satellites from companies like Planet Labs, Umbra, and HawkEye 360; GPS; miniature CubeSats for education and research; and military/defense satellites.

Loading next visibility...
Identifier
58899, 2024-022A
Orbit
SSO
Country
Flag of USUS
Related business
Manufacturer
Spire/Glasgow
Mission
Operational Commercial Early Warn
Bus & Motor
CUBESAT 3U, Unknown motor
Mass
~25 kg wet, ~25 kg dry
Launch date (UTC)
2024-01-31 (2 years ago)
Launch vehicle
ELECTRON
Launch site
Rocket Lab Launch Complex (RLLC)
Object type
Payload
Rocket body
Debris
Shape & HBR
Box + 2 Pan, 0.5 m
Radar Cross Section
0.146 m², Medium (>0.1 m² and < 1m²)

Expand to show TLE details & history
Last TLE update: 16 hours ago

TLE from 16 hours ago
0 LEMUR 2 NIMBUS2000
1 58899U 24022A   25351.56056331  .00013234  00000-0  40950-3 0  9998
2 58899  97.4268 194.8726 0011656  52.2139 308.0157 15.33542955104376
Epoch: 2025-12-17T13:27Z
TLE epoch observation values (Epoch: 2025-12-17T13:27:12.669Z)
Latitude
-0.00007°
Longitude
-93.35884°
Altitude
463.452 km
Speed
7.638 km/s
True Right ascension
12h 59m 29s
True Declination
0° 00' 00"
Sunlit
Object was in daylight at epoch
Visualization orbit readout
Latitude
Unknown
Longitude
Unknown
Altitude
Unknown
Speed
Unknown
Apparent Right ascension
Unknown
Apparent Declination
Unknown
Sunlit
N/A
Visualization observer readout
Local Sidereal Time
03:46:37
Azimuth
Unknown
Elevation
Unknown
Doppler factor
Unknown
Orbital elements
Apogee altitude
470.174 km
Perigee altitude
454.227 km
Semi-major axis
6,840.337 km
Eccentricity
0.00117
Inclination
97.4268°
RAAN
194.8726°
Arg. of periapsis
52.2139°
True anomaly
307.91038°
Mean anomaly
308.0157°
Eccentric anomaly
307.96305°
Mean motion
3.83643 °/min
Orbital period
93.84 mins
BSTAR
0.0004095
Loading maneuver chart data...
Computing Atmospheric mass density...
Loading historical data...
Loading historical data...
Loading historical data...
Loading historical data...
Loading historical data...
Loading historical data...
Loading historical data...

Documentation

Showing up to 5 results
|